• Processing (Info)

  • MPEC 2019-O129 : 2019 OZ2

    The following Minor Planet Electronic Circular may be linked-to from your own Web pages, but must not otherwise be redistributed electronically.

    A form allowing access to any MPEC is at the bottom of this page.


    Read MPEC 2019-O128 Read MPEC 2019-O130


    M.P.E.C. 2019-O129                                Issued 2019 July 30, 15:00 UT  
    
         The Minor Planet Electronic Circulars contain information on unusual
             minor planets and routine data on comets.  They are published
        on behalf of Division F of the International Astronomical Union by the
              Minor Planet Center, Smithsonian Astrophysical Observatory,
                              Cambridge, MA 02138, U.S.A.
    
                 Prepared using the Tamkin Foundation Computer Network
    
                                  MPC@CFA.HARVARD.EDU
                URL https://www.minorplanetcenter.net/    ISSN 1523-6714
    
                                    2019 OZ2                                 
    
    
    Observations:
         K19O02Z  C2019 07 27.44353720 10 53.778-17 33 59.27         20.2 GVEO129F52
         K19O02Z  C2019 07 27.45516620 11 03.129-17 31 57.84         19.6 GVEO129F52
         K19O02Z* C2019 07 29.40233 20 37 28.087-12 05 24.07         20.4 wUEO129F52
         K19O02Z  C2019 07 29.41457 20 37 36.420-12 03 26.47         20.0 wUEO129F52
         K19O02Z  C2019 07 29.42687 20 37 44.753-12 01 28.50         20.2 wUEO129F52
         K19O02Z IC2019 07 29.98137120 44 26.14 -10 35 03.4          19.7 GVEO129L01
         K19O02Z IC2019 07 29.98244720 44 26.80 -10 34 54.5          20.3 GVEO129L01
         K19O02Z KC2019 07 30.02127220 44 52.30 -10 28 54.2          20.2 GVEO129L01
         K19O02Z KC2019 07 30.02234220 44 53.00 -10 28 44.6          20.2 GVEO129L01
         K19O02Z KC2019 07 30.02448120 44 54.42 -10 28 24.5          20.0 GVEO129L01
         K19O02Z |C2019 07 30.16689 20 46 39.43 -10 03 17.2          20.3 VuEO129807
         K19O02Z |C2019 07 30.16959 20 46 41.16 -10 02 52.5          20.3 VuEO129807
         K19O02Z |C2019 07 30.17229 20 46 42.88 -10 02 28.0          20.5 VuEO129807
         K19O02Z KC2019 07 30.27486 20 47 53.36 -09 49 37.1                oEO129711
         K19O02Z KC2019 07 30.27749 20 47 55.01 -09 49 13.7                oEO129711
         K19O02Z IC2019 07 30.28012 20 47 56.72 -09 48 49.2                oEO129711
         K19O02Z KC2019 07 30.28173 20 47 57.68 -09 48 34.8                oEO129711
         K19O02Z  C2019 07 30.31109020 48 16.67 -09 44 15.9          20.1 GVEO129H01
         K19O02Z KC2019 07 30.31580 20 48 17.90 -09 43 42.1                qEO129H36
         K19O02Z KC2019 07 30.31915 20 48 20.18 -09 43 11.2          20.6 RqEO129H36
         K19O02Z  C2019 07 30.32012720 48 22.36 -09 42 53.8          19.9 GVEO129H01
         K19O02Z KC2019 07 30.32419 20 48 23.23 -09 42 26.0          20.4 RqEO129H36
         K19O02Z  C2019 07 30.32472520 48 25.24 -09 42 12.1          20.1 GVEO129H01
         K19O02Z  C2019 07 30.33260320 48 30.20 -09 41 00.3          20.0 GVEO129H01
    
    Observer details:
    711 McDonald Observatory, Fort Davis.  Observer J. G. Ries.  
        2.1-m reflector + CCD + focal reducer.
    807 Cerro Tololo Observatory, La Serena.  Observers T. Linder, R. Holmes.  
        0.61-m f/6.5 astrograph + CCD.
    F52 Pan-STARRS 2, Haleakala.  Observers J. Bulger, K. Chambers, T. Dukes,
        T. Lowe, E. Magnier, A. Schultz, M. Willman.  Measurers S. Chastel,
        M. Huber, Y. Ramanjooloo, R. Wainscoat, R. Weryk, K. Chambers, T. de Boer,
        L. Denneau, J. Fairlamb, H. Flewelling, C.-C. Lin, E. Magnier.  
        1.8-m Ritchey-Chretien + CCD.
    H01 Magdalena Ridge Observatory, Socorro.  Observers W. H. Ryan, E. V. Ryan.  
        Measurer W. H. Ryan.  2.4-m f/8.9 Ritchey-Chretien + CCD.
    H36 Sandlot Observatory, Scranton.  Observer G. Hug.  0.56-m reflector + CCD.
    L01 Visnjan Observatory, Tican.  Observer K. Korlevic.  
        1.0-m f/2.9 reflector + CCD.
    
    Orbital elements:
    2019 OZ2                                                 Earth MOID = 0.0439 AU
    Epoch 2019 Apr. 27.0 TT = JDT 2458600.5                 MPC
    M 333.03482              (2000.0)            P               Q
    n   0.32431538     Peri.  352.10726     +0.41659960     +0.90607761
    a   2.0980912      Node   302.48473     -0.82921234     +0.34539438
    e   0.4951344      Incl.    5.02919     -0.37262805     +0.24438923
    P   3.04           H   26.1           G   0.15           U   7
    Residuals in seconds of arc
    190727 F52  0.0   0.2+    190730 L01  0.3-  0.8-    190730 711  0.3-  0.5+
    190727 F52  0.1-  0.1-    190730 L01  0.1-  0.6-    190730 H01  0.0   0.2-
    190729 F52  0.3-  0.5-    190730 807  0.3-  0.0     190730 H36  0.0   0.1-
    190729 F52  0.1+  0.0     190730 807  0.1-  0.1+    190730 H36 (2.3+  0.3+)
    190729 F52  0.2+  0.2+    190730 807  0.1-  0.1-    190730 H01  0.1+  0.2-
    190729 L01  1.0+  1.2+    190730 711  0.2-  0.6+    190730 H36  0.1+  0.5-
    190729 L01  0.3+  0.1+    190730 711  0.3-  0.1+    190730 H01  0.1-  0.3-
    190730 L01  0.3-  0.4-    190730 711  0.5+  0.7+    190730 H01  0.0   0.1-
    
    Ephemeris:
    2019 OZ2                 a,e,i = 2.10, 0.50, 5                   q = 1.0593
    Date    TT    R. A. (2000) Decl.     Delta      r    Elong.  Phase     V
    2019 06 30    14 27 14.6 -41 30 27   0.1064  1.0827   126.1    49.4    23.2
    ...
    2019 07 15    16 29 50.5 -41 48 53   0.05946 1.0604   136.4    41.4    21.7
    ...
    2019 07 23    18 55 26.1 -30 07 20   0.04662 1.0602   161.0    18.1    20.5
    ...
    2019 07 29    20 32 19.3 -13 09 06   0.05030 1.0655   174.2     5.5    20.2
    2019 07 30    20 44 39.1 -10 30 00   0.05205 1.0669   171.5     8.1    20.4
    2019 07 31    20 55 55.4 -08 00 47   0.05406 1.0683   168.8    10.7    20.6
    ...
    2019 08 06    21 45 21.9 +03 10 17   0.07036 1.0797   157.2    21.3    21.5
    ...
    2019 08 14    22 20 35.2 +10 39 13   0.09879 1.1014   152.1    25.5    22.5
    ...
    2019 08 29    22 47 11.4 +14 49 07   0.1628  1.1598   155.1    21.5    23.5
    
    A. U. Tomatic                (C) Copyright 2019 MPC           M.P.E.C. 2019-O129
    


    Read MPEC 2019-O128 Read MPEC 2019-O130


    MPEC number:

    Enter an MPEC number in one of the following forms:

    • 1997-B01 (the full form)
    • J97B01 (the packed version of the full form)
    • B01 (the abbreviated form)